Date String (YYYY-MM-DD hh:mm:ss) UTC,Instrument flags,Ambient pressure (hPa),Sample flow (lpm),Bypass flow (lpm),Sample temperature (°C),Ambient temperature (°C),ASC tube jacket temperature (°C),LED temperature (°C),Box temperature (°C),Sample RH (%),Span deviation,Mass concentration (μg/m³),Mass concentration (μg/m³),Mass concentration (μg/m³)
DateTimeUTC,F1_M11,P_M11,Q1_M11,Q2_M11,T1_M11,T2_M11,T3_M11,T4_M11,T5_M11,U1_M11,ZSPAN_M11,X0_M11,X2_M11,X1_M11
2021-09-16 18:00:00,,0822.6,5.01,0.00,28.9,25.8,00.0,38.0,30.4,12.7,0002.5,0015.02,0007.11,0006.23
2021-09-16 18:01:00,,0822.6,5.00,0.00,28.9,26.3,00.0,38.0,30.5,13.0,0002.9,0015.38,0007.15,0006.28
2021-09-16 18:02:00,,0822.5,4.99,0.00,28.9,26.7,00.0,38.0,30.6,13.1,0003.0,0015.17,0007.14,0006.31
2021-09-16 18:03:00,,0822.4,5.01,0.00,28.9,27.1,00.0,38.0,30.7,12.7,0003.0,0014.49,0007.15,0006.33
2021-09-16 18:04:00,,0822.4,4.99,0.00,29.0,27.4,00.0,38.0,30.8,12.7,0003.3,0013.99,0007.17,0006.36
2021-09-16 18:05:00,,0822.4,5.01,0.00,29.0,27.7,00.0,38.0,30.9,12.3,0003.1,0014.00,0007.22,0006.40
2021-09-16 18:06:00,,0822.4,5.00,0.00,29.1,28.0,00.0,38.0,31.0,12.1,0003.1,0014.49,0007.21,0006.43
2021-09-16 18:07:00,,0822.4,5.00,0.00,29.2,27.9,00.0,38.0,31.0,12.3,0003.2,0014.71,0007.19,0006.43
2021-09-16 18:08:00,,0822.4,5.01,0.00,29.1,26.4,00.0,38.0,30.6,12.3,0003.3,0015.19,0007.17,0006.42
2021-09-16 18:09:00,,0822.4,4.99,0.00,29.0,25.9,00.0,38.0,30.4,12.3,0003.4,0014.71,0007.12,0006.41
2021-09-16 18:10:00,,0822.4,5.00,0.00,29.0,26.4,00.0,38.0,30.6,11.8,0003.5,0014.27,0007.07,0006.39
2021-09-16 18:11:00,,0822.4,5.00,0.00,28.9,26.8,00.0,38.0,30.7,12.0,0003.4,0014.24,0007.06,0006.38
2021-09-16 18:12:00,,0822.4,5.00,0.00,29.0,27.2,00.0,38.0,30.8,11.7,0003.4,0014.09,0007.02,0006.36
2021-09-16 18:13:00,,0822.4,5.01,0.00,29.0,27.5,00.0,38.0,30.9,12.1,0003.4,0014.16,0007.02,0006.34
2021-09-16 18:14:00,,0822.4,5.00,0.00,29.1,27.8,00.0,38.0,31.0,12.2,0003.2,0014.17,0007.04,0006.35
2021-09-16 18:15:00,,0822.4,4.98,0.00,29.1,28.1,00.0,38.0,31.0,12.2,0002.9,0014.19,0007.05,0006.36
2021-09-16 18:16:00,,0822.4,5.00,0.00,29.2,28.0,00.0,38.1,31.0,12.1,0002.9,0013.54,0007.01,0006.35
2021-09-16 18:17:00,,0822.4,5.00,0.00,29.1,26.6,00.0,38.1,30.6,12.1,0002.8,0012.63,0006.99,0006.34
2021-09-16 18:18:00,,0822.4,4.99,0.00,29.0,26.0,00.0,38.1,30.5,11.7,0002.6,0012.24,0006.98,0006.33
2021-09-16 18:19:00,,0822.4,5.00,0.00,29.0,26.4,00.0,38.0,30.6,11.7,0002.5,0011.74,0006.99,0006.31
2021-09-16 18:20:00,,0822.4,5.01,0.00,29.0,26.8,00.0,38.0,30.7,11.9,0002.4,0011.70,0007.01,0006.31
2021-09-16 18:21:00,,0822.4,4.99,0.00,29.0,27.2,00.0,38.0,30.8,11.8,0002.7,0011.84,0007.01,0006.31
2021-09-16 18:22:00,,0822.4,5.01,0.00,29.1,27.6,00.0,38.0,30.9,11.7,0002.6,0011.98,0007.03,0006.32
2021-09-16 18:23:00,,0822.4,5.00,0.00,29.1,27.9,00.0,38.0,31.0,11.7,0002.3,0011.57,0007.02,0006.33
2021-09-16 18:24:00,,0822.4,4.98,0.00,29.2,28.2,00.0,38.1,31.1,11.8,0001.8,0011.25,0006.98,0006.33
2021-09-16 18:25:00,,0822.4,5.00,0.00,29.2,27.4,00.0,38.1,30.9,11.5,0002.0,0011.30,0006.96,0006.31
2021-09-16 18:26:00,,0822.4,5.01,0.00,29.1,26.0,00.0,38.1,30.5,11.8,0002.5,0010.99,0006.94,0006.30
2021-09-16 18:27:00,,0822.3,4.99,0.00,29.0,26.1,00.0,38.1,30.5,12.0,0002.6,0011.22,0006.92,0006.26
2021-09-16 18:28:00,,0822.3,4.99,0.00,29.0,26.5,00.0,38.1,30.6,11.7,0002.7,0011.20,0006.89,0006.24
2021-09-16 18:29:00,,0822.4,5.01,0.00,29.0,26.9,00.0,38.0,30.7,11.4,0002.7,0012.43,0006.86,0006.21
2021-09-16 18:30:00,,0822.3,4.99,0.00,29.0,27.3,00.0,38.0,30.8,11.6,0002.6,0012.95,0006.84,0006.19
2021-09-16 18:31:00,,0822.3,5.00,0.00,29.1,27.6,00.0,38.0,30.9,11.5,0002.8,0013.08,0006.77,0006.16
2021-09-16 18:32:00,,0822.4,5.01,0.00,29.1,27.9,00.0,38.1,31.0,11.8,0002.3,0013.47,0006.74,0006.12
2021-09-16 18:33:00,,0822.3,5.00,0.00,29.2,28.0,00.0,38.1,31.0,11.7,0002.4,0014.29,0006.72,0006.09
2021-09-16 18:34:00,,0822.3,5.00,0.00,29.1,26.6,00.0,38.1,30.7,11.9,0002.7,0014.59,0006.69,0006.06
2021-09-16 18:35:00,,0822.4,5.00,0.00,29.0,25.9,00.0,38.1,30.4,11.7,0003.0,0015.35,0006.70,0006.02
2021-09-16 18:36:00,,0822.3,5.00,0.00,29.0,26.3,00.0,38.1,30.6,11.6,0002.8,0015.65,0006.66,0005.99
2021-09-16 18:37:00,,0822.4,5.01,0.00,29.0,26.7,00.0,38.0,30.7,11.3,0002.6,0015.62,0006.59,0005.94
2021-09-16 18:38:00,,0822.4,5.00,0.00,29.0,27.1,00.0,38.0,30.8,11.1,0002.8,0015.48,0006.56,0005.92
2021-09-16 18:39:00,,0822.3,4.99,0.00,29.0,27.5,00.0,38.0,30.9,11.2,0002.6,0015.95,0006.55,0005.92
2021-09-16 18:40:00,,0822.3,5.00,0.00,29.1,27.9,00.0,38.0,31.0,11.3,0002.9,0015.84,0006.53,0005.91
2021-09-16 18:41:00,,0822.4,5.01,0.00,29.2,27.9,00.0,38.1,31.0,11.3,0003.1,0015.54,0006.53,0005.90
2021-09-16 18:42:00,,0822.2,5.00,0.00,29.1,26.5,00.0,38.1,30.6,11.2,0003.0,0015.27,0006.54,0005.90
2021-09-16 18:43:00,,0822.2,5.00,0.00,29.0,25.7,00.0,38.0,30.4,11.5,0003.0,0014.76,0006.54,0005.91
2021-09-16 18:44:00,,0822.3,5.00,0.00,28.9,26.2,00.0,38.0,30.5,11.8,0002.9,0014.00,0006.54,0005.91
2021-09-16 18:45:00,,0822.3,5.00,0.00,28.9,26.6,00.0,38.0,30.6,11.7,0002.5,0015.38,0006.54,0005.91
2021-09-16 18:46:00,,0822.3,4.99,0.00,29.0,27.0,00.0,38.0,30.7,11.6,0002.2,0015.85,0006.51,0005.90
2021-09-16 18:47:00,,0822.2,5.00,0.00,29.0,27.4,00.0,38.0,30.8,11.5,0001.9,0016.85,0006.50,0005.90
2021-09-16 18:48:00,,0822.2,5.00,0.00,29.1,27.7,00.0,38.0,30.9,11.6,0001.6,0016.76,0006.53,0005.92
2021-09-16 18:49:00,,0822.2,5.00,0.00,29.1,27.7,00.0,38.0,31.0,11.7,0001.4,0016.65,0006.57,0005.94
2021-09-16 18:50:00,,0822.1,4.99,0.00,29.1,26.4,00.0,38.0,30.6,11.5,0001.6,0016.95,0006.60,0005.94
2021-09-16 18:51:00,,0822.1,5.01,0.00,28.9,25.6,00.0,38.0,30.3,11.9,0001.5,0016.46,0006.61,0005.96
2021-09-16 18:52:00,,0822.1,5.00,0.00,28.9,26.1,00.0,38.0,30.4,12.1,0001.5,0016.10,0006.60,0005.96
2021-09-16 18:53:00,,0822.1,4.99,0.00,28.9,26.5,00.0,38.0,30.5,12.0,0001.9,0016.15,0006.59,0005.96
2021-09-16 18:54:00,,0822.1,5.01,0.00,28.9,27.0,00.0,37.9,30.7,11.8,0001.9,0016.23,0006.59,0005.96
2021-09-16 18:55:00,,0822.1,4.99,0.00,29.0,27.4,00.0,38.0,30.8,11.8,0002.1,0016.04,0006.56,0005.95
2021-09-16 18:56:00,,0822.1,5.01,0.00,29.0,27.7,00.0,38.0,30.9,12.0,0002.3,0014.58,0006.56,0005.95
2021-09-16 18:57:00,,0822.1,4.98,0.00,29.1,28.0,00.0,38.0,31.0,12.0,0002.8,0013.36,0006.59,0005.97
2021-09-16 18:58:00,,0822.2,5.01,0.00,29.2,28.0,00.0,38.0,31.0,12.0,0003.1,0012.55,0006.59,0005.97
2021-09-16 18:59:00,,0822.1,5.00,0.00,29.1,26.7,00.0,38.0,30.6,11.6,0003.2,0012.57,0006.57,0005.95
